Location: Unspecified
(0.0000°N, 0.0000°E)
Time: 19:38:28
(UTC+00:00)

ORBCOMM FM 114 - Visible Passes

Search period start: 14 January 2025 00:00
Search period end: 24 January 2025 00:00
Orbit: 699 x 702 km, 47.0° (Epoch: 14 January)

Date Brightness Start Highest point End Pass type
(mag) Time Alt. Az. Time Alt. Az. Time Alt. Az.
22 Jan ? 19:49:52 10° N 19:50:12 12° N 19:50:12 12° N visible
23 Jan ? 18:51:58 10° NNE 18:54:09 13° NE 18:54:55 12° ENE visible
23 Jan ? 20:32:39 10° NW 20:33:51 17° NW 20:33:51 17° NW visible
